Tracking 18665 objects as of 23-June-2017
HD Live streaming from Space Station
objects crossing your sky now

FLOCK 3P 74

Track FLOCK 3P 74 now!
10-day predictions
FLOCK 3P 74 is classified as:


NORAD ID: 42048
Int'l Code: 2017-008DE
Perigee: 499.2 km
Apogee: 511.9 km
Inclination: 97.5 °
Period: 94.6 minutes
Semi major axis: 6876 km
RCS: Unknown
Launch date: February 15, 2017
Source: United States (US)
Launch site: SIRHARIKOTA (SRI)
Your satellite tracking list
Your tracking list is empty





NASA's NSSDC Master Catalog

Two Line Element Set (TLE):
1 42048U 17008DE  17173.42453836 +.00002872 +00000-0 +12702-3 0  9992
2 42048 097.4982 234.7842 0009261 167.0336 193.1140 15.22472461018498
Source of the keplerian elements: AFSPC